Wetterdaten: Montag, 26.04.2010
Datum Zeit Temp. A. Feuchte A. Luftdruck Regen Wind Richtung Richtung Sonnenschein UV Solar Windben
26.04.2010 00:00 15,1 C 53 % 1017,6 hPa 0,0 mm 0,0 km/h (0 Bft) O-SO 112 0 min 0 UV-I 0 W/m 3,2 km/h (1 Bft)
26.04.2010 00:10 15,3 C 53 % 1017,5 hPa 0,0 mm 0,0 km/h (0 Bft) O-SO 112 0 min 0 UV-I 0 W/m 1,6 km/h (1 Bft)
26.04.2010 00:20 15,3 C 54 % 1017,5 hPa 0,0 mm 0,0 km/h (0 Bft) O-SO 112 0 min 0 UV-I 0 W/m 1,6 km/h (1 Bft)
26.04.2010 00:30 15,3 C 53 % 1018,5 hPa 0,0 mm 3,2 km/h (1 Bft) W-SW 247 0 min 0 UV-I 0 W/m 16,1 km/h (3 Bft)
26.04.2010 00:40 15,9 C 48 % 1018,6 hPa 0,0 mm 4,8 km/h (1 Bft) W-SW 247 0 min 0 UV-I 0 W/m 14,5 km/h (3 Bft)
26.04.2010 00:50 16,7 C 49 % 1018,9 hPa 0,0 mm 6,4 km/h (2 Bft) SW 225 0 min 0 UV-I 0 W/m 19,3 km/h (3 Bft)
26.04.2010 01:00 16,8 C 51 % 1019,0 hPa 0,0 mm 9,7 km/h (2 Bft) W-SW 247 0 min 0 UV-I 0 W/m 25,7 km/h (4 Bft)
26.04.2010 01:10 16,7 C 55 % 1019,3 hPa 0,0 mm 9,7 km/h (2 Bft) W-SW 247 0 min 0 UV-I 0 W/m 22,5 km/h (4 Bft)
26.04.2010 01:20 16,1 C 58 % 1019,5 hPa 0,0 mm 9,7 km/h (2 Bft) W-SW 247 0 min 0 UV-I 0 W/m 29,0 km/h (5 Bft)
26.04.2010 01:30 15,6 C 59 % 1019,7 hPa 0,0 mm 9,7 km/h (2 Bft) W-SW 247 0 min 0 UV-I 0 W/m 25,7 km/h (4 Bft)
26.04.2010 01:40 15,2 C 61 % 1019,9 hPa 0,0 mm 9,7 km/h (2 Bft) W-SW 247 0 min 0 UV-I 0 W/m 22,5 km/h (4 Bft)
26.04.2010 01:50 15,0 C 61 % 1019,9 hPa 0,0 mm 6,4 km/h (2 Bft) W 270 0 min 0 UV-I 0 W/m 27,4 km/h (4 Bft)
26.04.2010 02:00 14,9 C 63 % 1020,1 hPa 0,0 mm 3,2 km/h (1 Bft) W-SW 247 0 min 0 UV-I 0 W/m 14,5 km/h (3 Bft)
26.04.2010 02:10 14,7 C 65 % 1020,0 hPa 0,0 mm 4,8 km/h (1 Bft) W-SW 247 0 min 0 UV-I 0 W/m 19,3 km/h (3 Bft)
26.04.2010 02:20 14,6 C 65 % 1020,0 hPa 0,0 mm 6,4 km/h (2 Bft) W-SW 247 0 min 0 UV-I 0 W/m 19,3 km/h (3 Bft)
26.04.2010 02:30 14,5 C 65 % 1020,1 hPa 0,0 mm 4,8 km/h (1 Bft) W-SW 247 0 min 0 UV-I 0 W/m 17,7 km/h (3 Bft)
26.04.2010 02:40 14,4 C 66 % 1019,8 hPa 0,0 mm 4,8 km/h (1 Bft) W-SW 247 0 min 0 UV-I 0 W/m 17,7 km/h (3 Bft)
26.04.2010 02:50 14,3 C 67 % 1019,9 hPa 0,0 mm 4,8 km/h (1 Bft) W-SW 247 0 min 0 UV-I 0 W/m 11,3 km/h (2 Bft)
26.04.2010 03:00 14,0 C 68 % 1019,9 hPa 0,0 mm 3,2 km/h (1 Bft) W-SW 247 0 min 0 UV-I 0 W/m 14,5 km/h (3 Bft)
26.04.2010 03:10 13,7 C 69 % 1019,8 hPa 0,0 mm 3,2 km/h (1 Bft) W-SW 247 0 min 0 UV-I 0 W/m 16,1 km/h (3 Bft)
26.04.2010 03:20 13,6 C 70 % 1019,7 hPa 0,0 mm 3,2 km/h (1 Bft) W-SW 247 0 min 0 UV-I 0 W/m 11,3 km/h (2 Bft)
26.04.2010 03:30 13,5 C 71 % 1019,9 hPa 0,0 mm 4,8 km/h (1 Bft) W-SW 247 0 min 0 UV-I 0 W/m 14,5 km/h (3 Bft)
26.04.2010 03:40 13,4 C 71 % 1019,8 hPa 0,0 mm 4,8 km/h (1 Bft) W-SW 247 0 min 0 UV-I 0 W/m 14,5 km/h (3 Bft)
26.04.2010 03:50 13,4 C 71 % 1019,6 hPa 0,0 mm 4,8 km/h (1 Bft) W 270 0 min 0 UV-I 0 W/m 9,7 km/h (2 Bft)
26.04.2010 04:00 13,4 C 72 % 1019,8 hPa 0,0 mm 3,2 km/h (1 Bft) W 270 0 min 0 UV-I 0 W/m 9,7 km/h (2 Bft)
26.04.2010 04:10 13,4 C 73 % 1020,0 hPa 0,0 mm 3,2 km/h (1 Bft) W-SW 247 0 min 0 UV-I 0 W/m 11,3 km/h (2 Bft)
26.04.2010 04:20 13,3 C 73 % 1019,9 hPa 0,0 mm 4,8 km/h (1 Bft) W-SW 247 0 min 0 UV-I 0 W/m 17,7 km/h (3 Bft)
26.04.2010 04:30 13,3 C 74 % 1019,9 hPa 0,0 mm 3,2 km/h (1 Bft) W-SW 247 0 min 0 UV-I 0 W/m 11,3 km/h (2 Bft)
26.04.2010 04:40 13,3 C 76 % 1019,9 hPa 0,0 mm 3,2 km/h (1 Bft) W-SW 247 0 min 0 UV-I 0 W/m 9,7 km/h (2 Bft)
26.04.2010 04:50 12,9 C 79 % 1019,9 hPa 0,0 mm 3,2 km/h (1 Bft) W-SW 247 0 min 0 UV-I 0 W/m 9,7 km/h (2 Bft)
26.04.2010 05:00 12,7 C 81 % 1020,0 hPa 0,5 mm 4,8 km/h (1 Bft) W-SW 247 0 min 0 UV-I 0 W/m 11,3 km/h (2 Bft)
26.04.2010 05:10 12,4 C 84 % 1020,2 hPa 0,8 mm 1,6 km/h (1 Bft) W-SW 247 0 min 0 UV-I 0 W/m 9,7 km/h (2 Bft)
26.04.2010 05:20 12,1 C 86 % 1020,3 hPa 1,0 mm 1,6 km/h (1 Bft) W-SW 247 0 min 0 UV-I 0 W/m 9,7 km/h (2 Bft)
26.04.2010 05:30 11,8 C 87 % 1020,3 hPa 1,0 mm 1,6 km/h (1 Bft) W-SW 247 0 min 0 UV-I 0 W/m 6,4 km/h (2 Bft)
26.04.2010 05:40 11,6 C 88 % 1020,4 hPa 0,0 mm 1,6 km/h (1 Bft) W-SW 247 0 min 0 UV-I 0 W/m 6,4 km/h (2 Bft)
26.04.2010 05:50 11,5 C 89 % 1020,4 hPa 0,3 mm 1,6 km/h (1 Bft) W 270 0 min 0 UV-I 0 W/m 9,7 km/h (2 Bft)
26.04.2010 06:00 11,4 C 89 % 1020,3 hPa 0,5 mm 0,8 km/h (0 Bft) SW 234 0 min 0 UV-I 0 W/m 4,8 km/h (1 Bft)
26.04.2010 06:10 11,3 C 90 % 1020,4 hPa 0,3 mm 0,4 km/h (0 Bft) SW 234 0 min 0 UV-I 0 W/m 4,8 km/h (1 Bft)
26.04.2010 06:20 11,2 C 90 % 1020,4 hPa 0,3 mm 0,7 km/h (0 Bft) W-SW 237 0 min 0 UV-I 0 W/m 4,8 km/h (1 Bft)
26.04.2010 06:30 11,1 C 91 % 1020,4 hPa 0,0 mm 0,1 km/h (0 Bft) W-SW 237 0 min 0 UV-I 0 W/m 3,2 km/h (1 Bft)
26.04.2010 06:40 11,2 C 91 % 1020,3 hPa 0,0 mm 0,0 km/h (0 Bft) W-SW 237 0 min 0 UV-I 0 W/m 1,6 km/h (1 Bft)
26.04.2010 06:50 11,1 C 91 % 1020,4 hPa 0,0 mm 0,0 km/h (0 Bft) N 360 0 min 0 UV-I 0 W/m 0,0 km/h (0 Bft)
26.04.2010 07:00 11,2 C 91 % 1020,4 hPa 0,0 mm 0,0 km/h (0 Bft) N 5 0 min 0 UV-I 1 W/m 0,0 km/h (0 Bft)
26.04.2010 07:10 11,2 C 92 % 1020,5 hPa 0,0 mm 0,2 km/h (0 Bft) N-NO 25 0 min 0 UV-I 8 W/m 3,2 km/h (1 Bft)
26.04.2010 07:20 11,3 C 92 % 1020,6 hPa 0,0 mm 0,0 km/h (0 Bft) N-NO 25 0 min 0 UV-I 6 W/m 1,6 km/h (1 Bft)
26.04.2010 07:30 11,3 C 92 % 1020,7 hPa 0,0 mm 0,0 km/h (0 Bft) N-NO 25 0 min 0 UV-I 6 W/m 1,6 km/h (1 Bft)
26.04.2010 07:40 11,3 C 92 % 1020,6 hPa 0,0 mm 0,0 km/h (0 Bft) N-NO 25 0 min 0 UV-I 10 W/m 0,0 km/h (0 Bft)
26.04.2010 07:50 11,3 C 92 % 1020,6 hPa 0,0 mm 0,0 km/h (0 Bft) N-NO 25 0 min 0 UV-I 29 W/m 1,6 km/h (1 Bft)
26.04.2010 08:00 11,4 C 92 % 1020,5 hPa 0,0 mm 0,0 km/h (0 Bft) N-NO 25 0 min 0 UV-I 66 W/m 0,0 km/h (0 Bft)
26.04.2010 08:10 11,4 C 92 % 1020,6 hPa 0,0 mm 0,0 km/h (0 Bft) N-NO 22 0 min 0 UV-I 62 W/m 1,6 km/h (1 Bft)
26.04.2010 08:20 11,4 C 92 % 1020,6 hPa 0,0 mm 0,0 km/h (0 Bft) N-NO 22 0 min 0 UV-I 26 W/m 1,6 km/h (1 Bft)
26.04.2010 08:30 11,5 C 92 % 1020,7 hPa 0,0 mm 0,0 km/h (0 Bft) N-NO 22 0 min 0 UV-I 46 W/m 3,2 km/h (1 Bft)
26.04.2010 08:40 11,6 C 92 % 1020,8 hPa 0,0 mm 3,2 km/h (1 Bft) SW 225 0 min 1 UV-I 90 W/m 9,7 km/h (2 Bft)
26.04.2010 08:50 11,7 C 92 % 1020,9 hPa 0,0 mm 4,8 km/h (1 Bft) W-SW 247 0 min 1 UV-I 130 W/m 11,3 km/h (2 Bft)
26.04.2010 09:00 11,8 C 91 % 1021,0 hPa 0,0 mm 4,8 km/h (1 Bft) W-SW 247 0 min 1 UV-I 148 W/m 19,3 km/h (3 Bft)
26.04.2010 09:10 11,8 C 90 % 1021,1 hPa 0,0 mm 6,4 km/h (2 Bft) W-SW 247 0 min 1 UV-I 163 W/m 17,7 km/h (3 Bft)
26.04.2010 09:20 12,0 C 89 % 1021,0 hPa 0,0 mm 4,8 km/h (1 Bft) W 270 0 min 1 UV-I 211 W/m 16,1 km/h (3 Bft)
26.04.2010 09:30 12,2 C 88 % 1021,1 hPa 0,0 mm 6,4 km/h (2 Bft) W-SW 247 10 min 1 UV-I 294 W/m 17,7 km/h (3 Bft)
26.04.2010 09:40 12,4 C 87 % 1021,0 hPa 0,0 mm 6,4 km/h (2 Bft) W-SW 247 10 min 2 UV-I 531 W/m 19,3 km/h (3 Bft)
26.04.2010 09:50 12,6 C 85 % 1021,1 hPa 0,0 mm 8,0 km/h (2 Bft) W-SW 247 10 min 2 UV-I 336 W/m 19,3 km/h (3 Bft)
26.04.2010 10:00 12,6 C 84 % 1021,2 hPa 0,0 mm 8,0 km/h (2 Bft) W-SW 247 10 min 2 UV-I 555 W/m 20,9 km/h (4 Bft)
26.04.2010 10:10 12,8 C 80 % 1021,2 hPa 0,0 mm 11,3 km/h (2 Bft) W-SW 247 10 min 2 UV-I 570 W/m 24,1 km/h (4 Bft)
26.04.2010 10:20 12,7 C 80 % 1021,4 hPa 0,0 mm 6,4 km/h (2 Bft) W 270 10 min 2 UV-I 512 W/m 22,5 km/h (4 Bft)
26.04.2010 10:30 12,7 C 79 % 1021,3 hPa 0,0 mm 9,7 km/h (2 Bft) W-SW 247 10 min 3 UV-I 765 W/m 24,1 km/h (4 Bft)
26.04.2010 10:40 13,1 C 77 % 1021,3 hPa 0,0 mm 9,7 km/h (2 Bft) W-SW 247 10 min 4 UV-I 793 W/m 35,4 km/h (5 Bft)
26.04.2010 10:50 13,3 C 77 % 1021,4 hPa 0,0 mm 9,7 km/h (2 Bft) W 270 0 min 3 UV-I 309 W/m 22,5 km/h (4 Bft)
26.04.2010 11:00 13,2 C 77 % 1021,6 hPa 0,0 mm 8,0 km/h (2 Bft) W-SW 247 0 min 1 UV-I 209 W/m 22,5 km/h (4 Bft)
26.04.2010 11:10 12,8 C 78 % 1021,7 hPa 0,0 mm 8,0 km/h (2 Bft) W-SW 247 0 min 1 UV-I 188 W/m 20,9 km/h (4 Bft)
26.04.2010 11:20 12,8 C 78 % 1021,7 hPa 0,0 mm 8,0 km/h (2 Bft) W-SW 247 0 min 2 UV-I 227 W/m 20,9 km/h (4 Bft)
26.04.2010 11:30 12,9 C 77 % 1021,8 hPa 0,0 mm 8,0 km/h (2 Bft) W-SW 247 0 min 2 UV-I 350 W/m 25,7 km/h (4 Bft)
26.04.2010 11:40 13,1 C 77 % 1021,8 hPa 0,0 mm 8,0 km/h (2 Bft) W 270 0 min 2 UV-I 383 W/m 19,3 km/h (3 Bft)
26.04.2010 11:50 13,2 C 76 % 1021,9 hPa 0,0 mm 8,0 km/h (2 Bft) W 270 0 min 2 UV-I 313 W/m 20,9 km/h (4 Bft)
26.04.2010 12:00 13,1 C 77 % 1021,8 hPa 0,0 mm 9,7 km/h (2 Bft) W-SW 247 0 min 2 UV-I 294 W/m 20,9 km/h (4 Bft)
26.04.2010 12:10 13,2 C 77 % 1021,8 hPa 0,0 mm 8,0 km/h (2 Bft) W-SW 247 10 min 3 UV-I 450 W/m 22,5 km/h (4 Bft)
26.04.2010 12:20 13,3 C 76 % 1021,8 hPa 0,0 mm 9,7 km/h (2 Bft) W 270 0 min 2 UV-I 304 W/m 22,5 km/h (4 Bft)
26.04.2010 12:30 13,5 C 76 % 1021,7 hPa 0,0 mm 9,7 km/h (2 Bft) W 270 0 min 3 UV-I 380 W/m 22,5 km/h (4 Bft)
26.04.2010 12:40 13,9 C 75 % 1021,8 hPa 0,0 mm 9,7 km/h (2 Bft) W-SW 247 10 min 4 UV-I 492 W/m 29,0 km/h (5 Bft)
26.04.2010 12:50 13,9 C 75 % 1021,7 hPa 0,0 mm 11,3 km/h (2 Bft) W 270 0 min 5 UV-I 410 W/m 25,7 km/h (4 Bft)
26.04.2010 13:00 14,2 C 74 % 1021,6 hPa 0,0 mm 6,4 km/h (2 Bft) W 270 0 min 2 UV-I 309 W/m 22,5 km/h (4 Bft)
26.04.2010 13:10 14,1 C 75 % 1021,8 hPa 0,0 mm 8,0 km/h (2 Bft) W 270 0 min 3 UV-I 323 W/m 22,5 km/h (4 Bft)
26.04.2010 13:20 14,6 C 73 % 1021,6 hPa 0,0 mm 6,4 km/h (2 Bft) W 270 10 min 5 UV-I 802 W/m 17,7 km/h (3 Bft)
26.04.2010 13:30 14,9 C 73 % 1021,7 hPa 0,0 mm 8,0 km/h (2 Bft) W 270 0 min 3 UV-I 338 W/m 24,1 km/h (4 Bft)
26.04.2010 13:40 14,4 C 74 % 1021,8 hPa 0,0 mm 11,3 km/h (2 Bft) W 270 0 min 2 UV-I 207 W/m 24,1 km/h (4 Bft)
26.04.2010 13:50 14,3 C 74 % 1021,8 hPa 0,0 mm 8,0 km/h (2 Bft) W-SW 247 0 min 2 UV-I 223 W/m 22,5 km/h (4 Bft)
26.04.2010 14:00 14,2 C 75 % 1021,8 hPa 0,0 mm 8,0 km/h (2 Bft) W 270 0 min 1 UV-I 149 W/m 20,9 km/h (4 Bft)
26.04.2010 14:10 14,3 C 75 % 1022,0 hPa 0,0 mm 8,0 km/h (2 Bft) W 270 0 min 2 UV-I 290 W/m 22,5 km/h (4 Bft)
26.04.2010 14:20 14,4 C 74 % 1022,1 hPa 0,0 mm 9,7 km/h (2 Bft) W 270 10 min 4 UV-I 519 W/m 27,4 km/h (4 Bft)
26.04.2010 14:30 14,8 C 73 % 1022,1 hPa 0,0 mm 8,0 km/h (2 Bft) W 270 0 min 3 UV-I 362 W/m 27,4 km/h (4 Bft)
26.04.2010 14:40 14,8 C 73 % 1022,2 hPa 0,0 mm 8,0 km/h (2 Bft) W 270 0 min 2 UV-I 216 W/m 19,3 km/h (3 Bft)
26.04.2010 14:50 14,6 C 74 % 1022,2 hPa 0,0 mm 6,4 km/h (2 Bft) W 270 0 min 2 UV-I 225 W/m 20,9 km/h (4 Bft)
26.04.2010 15:00 14,6 C 74 % 1022,2 hPa 0,0 mm 8,0 km/h (2 Bft) W 270 0 min 2 UV-I 229 W/m 19,3 km/h (3 Bft)
26.04.2010 15:10 14,7 C 73 % 1022,2 hPa 0,0 mm 6,4 km/h (2 Bft) W 270 0 min 1 UV-I 188 W/m 17,7 km/h (3 Bft)
26.04.2010 15:20 14,6 C 74 % 1022,2 hPa 0,0 mm 6,4 km/h (2 Bft) W 270 0 min 1 UV-I 116 W/m 16,1 km/h (3 Bft)
26.04.2010 15:30 14,4 C 77 % 1022,2 hPa 0,0 mm 8,0 km/h (2 Bft) W 270 0 min 1 UV-I 98 W/m 20,9 km/h (4 Bft)
26.04.2010 15:40 14,1 C 78 % 1022,3 hPa 0,0 mm 4,8 km/h (1 Bft) W-SW 247 0 min 1 UV-I 105 W/m 17,7 km/h (3 Bft)
26.04.2010 15:50 14,1 C 78 % 1022,3 hPa 0,3 mm 6,4 km/h (2 Bft) W 270 0 min 1 UV-I 204 W/m 19,3 km/h (3 Bft)
26.04.2010 16:00 14,4 C 77 % 1022,2 hPa 0,0 mm 3,8 km/h (1 Bft) SW 236 0 min 2 UV-I 283 W/m 6,4 km/h (2 Bft)
26.04.2010 16:10 14,7 C 75 % 1022,1 hPa 0,0 mm 6,4 km/h (2 Bft) W-SW 247 10 min 2 UV-I 371 W/m 27,4 km/h (4 Bft)
26.04.2010 16:20 15,1 C 72 % 1022,1 hPa 0,0 mm 8,0 km/h (2 Bft) W 270 10 min 2 UV-I 355 W/m 20,9 km/h (4 Bft)
26.04.2010 16:30 15,2 C 71 % 1022,0 hPa 0,0 mm 6,4 km/h (2 Bft) W 270 10 min 2 UV-I 397 W/m 17,7 km/h (3 Bft)
26.04.2010 16:40 15,7 C 70 % 1022,0 hPa 0,0 mm 4,8 km/h (1 Bft) W 270 10 min 2 UV-I 559 W/m 17,7 km/h (3 Bft)
26.04.2010 16:50 15,9 C 69 % 1021,9 hPa 0,0 mm 6,4 km/h (2 Bft) W 270 10 min 2 UV-I 362 W/m 17,7 km/h (3 Bft)
26.04.2010 17:00 15,8 C 70 % 1022,0 hPa 0,0 mm 3,2 km/h (1 Bft) W-SW 247 10 min 2 UV-I 345 W/m 9,7 km/h (2 Bft)
26.04.2010 17:10 16,1 C 69 % 1022,1 hPa 0,0 mm 4,8 km/h (1 Bft) W 270 10 min 2 UV-I 288 W/m 17,7 km/h (3 Bft)
26.04.2010 17:20 15,8 C 69 % 1022,1 hPa 0,0 mm 3,2 km/h (1 Bft) W-NW 292 0 min 1 UV-I 118 W/m 14,5 km/h (3 Bft)
26.04.2010 17:30 15,6 C 71 % 1022,0 hPa 0,0 mm 1,6 km/h (1 Bft) W 270 0 min 0 UV-I 53 W/m 8,0 km/h (2 Bft)
26.04.2010 17:40 15,4 C 72 % 1022,1 hPa 0,0 mm 1,6 km/h (1 Bft) W 270 0 min 0 UV-I 32 W/m 4,8 km/h (1 Bft)
26.04.2010 17:50 15,0 C 79 % 1022,4 hPa 1,3 mm 0,0 km/h (0 Bft) W 270 0 min 0 UV-I 26 W/m 4,8 km/h (1 Bft)
26.04.2010 18:00 14,2 C 79 % 1022,8 hPa 0,8 mm 8,0 km/h (2 Bft) W 270 0 min 0 UV-I 32 W/m 35,4 km/h (5 Bft)
26.04.2010 18:10 12,8 C 84 % 1023,1 hPa 2,5 mm 8,0 km/h (2 Bft) W-NW 292 0 min 0 UV-I 11 W/m 27,4 km/h (4 Bft)
26.04.2010 18:20 11,6 C 87 % 1022,9 hPa 0,5 mm 0,9 km/h (0 Bft) W-NW 288 0 min 0 UV-I 54 W/m 4,8 km/h (1 Bft)
26.04.2010 18:30 11,6 C 88 % 1022,8 hPa 0,5 mm 2,3 km/h (1 Bft) W 269 0 min 0 UV-I 94 W/m 11,3 km/h (2 Bft)
26.04.2010 18:40 11,7 C 89 % 1022,8 hPa 0,0 mm 0,4 km/h (0 Bft) W 269 0 min 0 UV-I 76 W/m 3,2 km/h (1 Bft)
26.04.2010 18:50 11,7 C 89 % 1022,8 hPa 0,0 mm 1,8 km/h (1 Bft) W 268 0 min 0 UV-I 63 W/m 8,0 km/h (2 Bft)
26.04.2010 19:00 11,7 C 89 % 1023,0 hPa 0,0 mm 1,7 km/h (1 Bft) W-SW 254 0 min 0 UV-I 42 W/m 6,4 km/h (2 Bft)
26.04.2010 19:10 11,8 C 89 % 1022,8 hPa 0,0 mm 0,6 km/h (0 Bft) SW 224 0 min 0 UV-I 23 W/m 8,0 km/h (2 Bft)
26.04.2010 19:20 11,7 C 89 % 1022,8 hPa 0,0 mm 1,0 km/h (0 Bft) W 260 0 min 0 UV-I 22 W/m 6,4 km/h (2 Bft)
26.04.2010 19:30 11,8 C 89 % 1023,0 hPa 0,0 mm 0,6 km/h (0 Bft) W 261 0 min 0 UV-I 21 W/m 3,2 km/h (1 Bft)
26.04.2010 19:40 11,8 C 89 % 1023,0 hPa 0,0 mm 0,4 km/h (0 Bft) W 261 0 min 0 UV-I 27 W/m 3,2 km/h (1 Bft)
26.04.2010 19:50 11,8 C 89 % 1022,9 hPa 0,0 mm 0,1 km/h (0 Bft) W 261 0 min 0 UV-I 15 W/m 1,6 km/h (1 Bft)
26.04.2010 20:00 11,8 C 89 % 1023,0 hPa 0,0 mm 0,0 km/h (0 Bft) W 270 0 min 0 UV-I 12 W/m 1,6 km/h (1 Bft)
26.04.2010 20:10 11,8 C 90 % 1023,1 hPa 0,0 mm 0,0 km/h (0 Bft) N 0 0 min 0 UV-I 5 W/m 0,0 km/h (0 Bft)
26.04.2010 20:20 11,8 C 90 % 1023,2 hPa 0,0 mm 0,0 km/h (0 Bft) W 270 0 min 0 UV-I 0 W/m 1,6 km/h (1 Bft)
26.04.2010 20:30 11,7 C 89 % 1023,4 hPa 0,0 mm 0,0 km/h (0 Bft) W 270 0 min 0 UV-I 0 W/m 3,2 km/h (1 Bft)
26.04.2010 20:40 11,7 C 89 % 1023,5 hPa 0,0 mm 0,0 km/h (0 Bft) W 270 0 min 0 UV-I 0 W/m 1,6 km/h (1 Bft)
26.04.2010 20:50 11,7 C 89 % 1023,6 hPa 0,0 mm 0,0 km/h (0 Bft) W 270 0 min 0 UV-I 0 W/m 1,6 km/h (1 Bft)
26.04.2010 21:00 11,6 C 90 % 1023,6 hPa 0,0 mm 0,0 km/h (0 Bft) N-NW 337 0 min 0 UV-I 0 W/m 3,2 km/h (1 Bft)
26.04.2010 21:10 11,6 C 91 % 1023,6 hPa 0,0 mm 0,0 km/h (0 Bft) N-NW 337 0 min 0 UV-I 0 W/m 1,6 km/h (1 Bft)
26.04.2010 21:20 11,5 C 91 % 1023,7 hPa 0,0 mm 0,0 km/h (0 Bft) N-NW 337 0 min 0 UV-I 0 W/m 1,6 km/h (1 Bft)
26.04.2010 21:30 11,5 C 91 % 1023,9 hPa 0,0 mm 0,0 km/h (0 Bft) N 0 0 min 0 UV-I 0 W/m 0,0 km/h (0 Bft)
26.04.2010 21:40 11,5 C 92 % 1024,0 hPa 0,0 mm 0,0 km/h (0 Bft) N 0 0 min 0 UV-I 0 W/m 0,0 km/h (0 Bft)
26.04.2010 21:50 11,5 C 92 % 1024,1 hPa 0,0 mm 0,0 km/h (0 Bft) N 0 0 min 0 UV-I 0 W/m 0,0 km/h (0 Bft)
26.04.2010 22:00 11,5 C 92 % 1024,2 hPa 0,0 mm 0,0 km/h (0 Bft) N-NW 337 0 min 0 UV-I 0 W/m 1,6 km/h (1 Bft)
26.04.2010 22:10 11,4 C 92 % 1024,2 hPa 0,0 mm 0,0 km/h (0 Bft) N-NW 337 0 min 0 UV-I 0 W/m 1,6 km/h (1 Bft)
26.04.2010 22:20 11,3 C 92 % 1024,3 hPa 0,0 mm 0,0 km/h (0 Bft) N 0 0 min 0 UV-I 0 W/m 0,0 km/h (0 Bft)
26.04.2010 22:30 11,3 C 92 % 1024,3 hPa 0,0 mm 0,0 km/h (0 Bft) N 0 0 min 0 UV-I 0 W/m 0,0 km/h (0 Bft)
26.04.2010 22:40 11,3 C 92 % 1024,3 hPa 0,0 mm 0,0 km/h (0 Bft) N 0 0 min 0 UV-I 0 W/m 0,0 km/h (0 Bft)
26.04.2010 22:50 11,2 C 92 % 1024,3 hPa 0,0 mm 0,0 km/h (0 Bft) N 0 0 min 0 UV-I 0 W/m 0,0 km/h (0 Bft)
26.04.2010 23:00 10,9 C 92 % 1024,3 hPa 0,0 mm 0,0 km/h (0 Bft) N 0 0 min 0 UV-I 0 W/m 0,0 km/h (0 Bft)
26.04.2010 23:10 10,7 C 93 % 1024,2 hPa 0,0 mm 0,0 km/h (0 Bft) N 0 0 min 0 UV-I 0 W/m 0,0 km/h (0 Bft)
26.04.2010 23:20 10,7 C 93 % 1024,3 hPa 0,0 mm 0,0 km/h (0 Bft) N 0 0 min 0 UV-I 0 W/m 0,0 km/h (0 Bft)
26.04.2010 23:30 10,8 C 93 % 1024,2 hPa 0,0 mm 0,0 km/h (0 Bft) N-NW 337 0 min 0 UV-I 0 W/m 1,6 km/h (1 Bft)
26.04.2010 23:40 10,9 C 93 % 1024,2 hPa 0,0 mm 0,0 km/h (0 Bft) N 0 0 min 0 UV-I 0 W/m 0,0 km/h (0 Bft)
26.04.2010 23:50 10,8 C 93 % 1024,2 hPa 0,0 mm 0,0 km/h (0 Bft) N-NW 337 0 min 0 UV-I 0 W/m 1,6 km/h (1 Bft)
_ Min-Zeit 23:10 00:40 00:10 - 00:00 - - - - - 06:50
Minimum _ 10,6 C 48 % 1017,5 hPa - 0,0 km/h (0 Bft) - - - - - 0,0 km/h (0 Bft)
_ Max-Zeit 01:00 23:10 22:20 18:10 10:10 - - 09:30 13:20 13:20 10:40
Maximum _ 16,9 C 93 % 1024,3 hPa 2,5 mm 11,3 km/h
W-SW (2 Bft)
- - 10 min 5 UV-I 802 W/m 35,4 km/h
W-SW (5 Bft)
Durchschnitt _ 13,1 C 79 % 1021,5 hPa #10,4 mm 4,0 km/h (1 Bft) W-SW - #3:10 h 2 UV-I 228 W/m 12,4 km/h (3 Bft)